Staples, MN

8:38 PM CDT on May 25, 2017 (GMT -0500)
Staples Municipal

Weather History for KSAZ - September, 2012

Change the Weather History Date:

Thursday, September 20, 2012

  Actual Average Record
Temperature  
Mean Temperature 51 °F -  
Max Temperature 60 °F 64 °F 82 °F (2005)
Min Temperature 42 °F 43 °F 32 °F (2000)
Degree Days  
Heating Degree Days 14    
Growing Degree Days 1 (Base 50)    
Moisture  
Dew Point 35 °F    
Average Humidity 59    
Maximum Humidity 93    
Minimum Humidity 31    
Precipitation  
Precipitation 0.02 in - - ()
Sea Level Pressure  
Sea Level Pressure 29.88 in    
Wind  
Wind Speed 10 mph (WNW)    
Max Wind Speed 17 mph    
Max Gust Speed 25 mph    
Visibility 10 miles    
Events Rain    
Averages and records for this station are not official NWS values.
T = Trace of Precipitation, MM = Missing Value Source: NWS Daily Summary

Daily Weather History Graph

Daily Weather History Graph

Search for Another Location

Airport or City:

Trip Planner

Search our weather history database for the weather conditions in past years. The results will help you decide how hot, cold, wet, or windy it might be!

Date:

Astronomy

Sep. 20, 2012 Rise Set
Actual Time 7:04 AM CDT 7:19 PM CDT
Civil Twilight 6:34 AM CDT 7:49 PM CDT
Nautical Twilight 5:58 AM CDT 8:25 PM CDT
Astronomical Twilight 5:22 AM CDT 9:01 PM CDT
Moon 12:44 PM CDT (9/20) 10:01 PM CDT (9/20)
Length of Visible Light 13h 15m
Length of Day
12h 15m
Waxing Crescent, 27% of the Moon is Illuminated
Sep 20
Waxing Crescent
Sep 22
First Quarter
Sep 29
Full
Oct 8
Last Quarter
Oct 15
New

Hourly Weather History & Observations

Time (CDT) Temp. Windchill Dew Point Humidity Pressure Visibility Wind Dir Wind Speed Gust Speed Precip Events Conditions
12:13 AM 44.6 °F 39.7 °F 37.4 °F 76% 29.84 in 10.0 mi WNW 9.2 mph - N/A   Clear
12:34 AM 46.4 °F 41.9 °F 37.4 °F 71% 29.83 in 10.0 mi WNW 9.2 mph - N/A   Clear
12:53 AM 44.6 °F 40.7 °F 37.4 °F 76% 29.83 in 10.0 mi West 6.9 mph - N/A   Clear
1:13 AM 44.6 °F 40.2 °F 37.4 °F 76% 29.83 in 10.0 mi West 8.1 mph - N/A   Clear
1:34 AM 44.6 °F 39.7 °F 37.4 °F 76% 29.83 in 10.0 mi West 9.2 mph - N/A   Clear
1:53 AM 44.6 °F 39.7 °F 37.4 °F 76% 29.84 in 10.0 mi West 9.2 mph - N/A   Clear
2:14 AM 44.6 °F 39.7 °F 37.4 °F 76% 29.84 in 10.0 mi West 9.2 mph - N/A   Clear
2:33 AM 44.6 °F 38.8 °F 37.4 °F 76% 29.84 in 10.0 mi West 11.5 mph - N/A   Clear
2:53 AM 44.6 °F 38.8 °F 35.6 °F 71% 29.84 in 10.0 mi WNW 11.5 mph - N/A   Clear
3:13 AM 44.6 °F 38.8 °F 35.6 °F 71% 29.84 in 10.0 mi WNW 11.5 mph - N/A   Clear
3:33 AM 44.6 °F 38.8 °F 35.6 °F 71% 29.85 in 10.0 mi WNW 11.5 mph 16.1 mph N/A   Clear
3:54 AM 44.6 °F 39.2 °F 35.6 °F 71% 29.85 in 10.0 mi WNW 10.4 mph - N/A   Clear
4:13 AM 44.6 °F 39.2 °F 35.6 °F 71% 29.85 in 10.0 mi WNW 10.4 mph - N/A   Clear
4:33 AM 44.6 °F 39.7 °F 35.6 °F 71% 29.85 in 10.0 mi WNW 9.2 mph - N/A   Clear
5:13 AM 44.6 °F 39.2 °F 35.6 °F 71% 29.86 in 10.0 mi WNW 10.4 mph 16.1 mph N/A   Clear
5:33 AM 44.6 °F 38.8 °F 35.6 °F 71% 29.86 in 10.0 mi WNW 11.5 mph - N/A   Clear
5:54 AM 44.6 °F 39.2 °F 35.6 °F 71% 29.87 in 10.0 mi WNW 10.4 mph 17.3 mph N/A   Clear
6:13 AM 44.6 °F 39.2 °F 35.6 °F 71% 29.87 in 10.0 mi WNW 10.4 mph - N/A   Clear
6:33 AM 44.6 °F 39.7 °F 35.6 °F 71% 29.88 in 10.0 mi WNW 9.2 mph - N/A   Clear
6:54 AM 42.8 °F 37.5 °F 35.6 °F 76% 29.89 in 10.0 mi WNW 9.2 mph - N/A   Clear
7:13 AM 42.8 °F 37.5 °F 35.6 °F 76% 29.90 in 10.0 mi West 9.2 mph - N/A   Clear
7:34 AM 42.8 °F 37.5 °F 35.6 °F 76% 29.90 in 10.0 mi WNW 9.2 mph - N/A   Clear
7:54 AM 44.6 °F 39.7 °F 35.6 °F 71% 29.90 in 10.0 mi WNW 9.2 mph - N/A   Clear
8:13 AM 44.6 °F 38.4 °F 35.6 °F 71% 29.90 in 10.0 mi WNW 12.7 mph 17.3 mph N/A   Clear
8:34 AM 46.4 °F 41.1 °F 35.6 °F 66% 29.91 in 10.0 mi WNW 11.5 mph - N/A   Scattered Clouds
8:54 AM 48.2 °F - 35.6 °F 62% 29.91 in 10.0 mi WNW 12.7 mph - N/A   Scattered Clouds
9:13 AM 48.2 °F - 35.6 °F 62% 29.91 in 10.0 mi WNW 11.5 mph 18.4 mph N/A   Clear
9:34 AM 51.8 °F - 35.6 °F 54% 29.91 in 10.0 mi NW 13.8 mph - N/A   Clear
9:54 AM 51.8 °F - 35.6 °F 54% 29.91 in 10.0 mi NW 12.7 mph 19.6 mph N/A   Clear
10:13 AM 53.6 °F - 37.4 °F 54% 29.91 in 10.0 mi NW 12.7 mph 18.4 mph N/A   Scattered Clouds
10:34 AM 53.6 °F - 35.6 °F 51% 29.91 in 10.0 mi NW 12.7 mph 18.4 mph N/A   Scattered Clouds
10:53 AM 53.6 °F - 35.6 °F 51% 29.92 in 10.0 mi WNW 15.0 mph 19.6 mph N/A   Scattered Clouds
11:14 AM 55.4 °F - 35.6 °F 47% 29.92 in 10.0 mi NNW 16.1 mph 20.7 mph N/A   Scattered Clouds
11:33 AM 55.4 °F - 35.6 °F 47% 29.92 in 10.0 mi WNW 13.8 mph 21.9 mph N/A   Clear
11:53 AM 55.4 °F - 35.6 °F 47% 29.92 in 10.0 mi NW 17.3 mph 23.0 mph N/A   Scattered Clouds
12:14 PM 57.2 °F - 33.8 °F 41% 29.92 in 10.0 mi NW 13.8 mph 20.7 mph N/A   Scattered Clouds
12:33 PM 57.2 °F - 33.8 °F 41% 29.91 in 10.0 mi NW 16.1 mph 20.7 mph N/A   Scattered Clouds
12:54 PM 57.2 °F - 33.8 °F 41% 29.91 in 10.0 mi WNW 12.7 mph 19.6 mph N/A   Scattered Clouds
1:14 PM 57.2 °F - 32.0 °F 38% 29.91 in 10.0 mi NW 11.5 mph 20.7 mph N/A   Mostly Cloudy
1:33 PM 57.2 °F - 32.0 °F 38% 29.91 in 10.0 mi WNW 10.4 mph - N/A   Mostly Cloudy
1:54 PM 57.2 °F - 30.2 °F 36% 29.90 in 10.0 mi WNW 11.5 mph - N/A   Mostly Cloudy
2:14 PM 57.2 °F - 30.2 °F 36% 29.90 in 10.0 mi WNW 13.8 mph - N/A   Mostly Cloudy
2:33 PM 60.8 °F - 30.2 °F 31% 29.89 in 10.0 mi WNW 13.8 mph 21.9 mph N/A   Overcast
2:53 PM 59.0 °F - 30.2 °F 34% 29.89 in 10.0 mi WNW 12.7 mph 21.9 mph N/A   Mostly Cloudy
3:14 PM 59.0 °F - 30.2 °F 34% 29.88 in 10.0 mi West 12.7 mph 20.7 mph N/A   Mostly Cloudy
3:33 PM 60.8 °F - 30.2 °F 31% 29.88 in 10.0 mi WNW 17.3 mph 25.3 mph N/A   Mostly Cloudy
3:54 PM 60.8 °F - 30.2 °F 31% 29.88 in 10.0 mi West 16.1 mph 19.6 mph N/A   Mostly Cloudy
4:13 PM 59.0 °F - 30.2 °F 34% 29.88 in 10.0 mi West 13.8 mph 21.9 mph N/A   Mostly Cloudy
4:33 PM 59.0 °F - 30.2 °F 34% 29.87 in 10.0 mi WNW 11.5 mph 18.4 mph N/A   Mostly Cloudy
4:54 PM 57.2 °F - 30.2 °F 36% 29.86 in 10.0 mi West 10.4 mph - N/A   Scattered Clouds
5:13 PM 57.2 °F - 30.2 °F 36% 29.86 in 10.0 mi WNW 8.1 mph - N/A   Scattered Clouds
5:33 PM 57.2 °F - 30.2 °F 36% 29.85 in 10.0 mi West 6.9 mph - N/A   Clear
5:54 PM 57.2 °F - 32.0 °F 38% 29.84 in 10.0 mi WSW 5.8 mph - N/A   Scattered Clouds
6:13 PM 57.2 °F - 33.8 °F 41% 29.84 in 10.0 mi SW 5.8 mph - N/A   Clear
6:33 PM 57.2 °F - 33.8 °F 41% 29.84 in 10.0 mi WSW 9.2 mph - N/A   Mostly Cloudy
6:54 PM 57.2 °F - 32.0 °F 38% 29.84 in 10.0 mi WNW 9.2 mph - N/A   Mostly Cloudy
7:13 PM 57.2 °F - 32.0 °F 38% 29.84 in 10.0 mi NW 9.2 mph - N/A   Overcast
7:33 PM 55.4 °F - 32.0 °F 41% 29.85 in 10.0 mi NNW 8.1 mph - N/A   Overcast
7:54 PM 55.4 °F - 33.8 °F 44% 29.86 in 10.0 mi North 11.5 mph 23.0 mph N/A Rain Light Rain
8:13 PM 53.6 °F - 35.6 °F 51% 29.87 in 10.0 mi North 9.2 mph - N/A   Overcast
8:33 PM 53.6 °F - 37.4 °F 54% 29.88 in 10.0 mi NNW 6.9 mph - N/A   Overcast
8:53 PM 51.8 °F - 37.4 °F 58% 29.89 in 10.0 mi NNW 8.1 mph - N/A   Overcast
9:13 PM 48.2 °F - 39.2 °F 71% 29.89 in 10.0 mi North 11.5 mph - N/A   Light Drizzle
9:34 PM 48.2 °F - 42.8 °F 82% 29.89 in 10.0 mi North 6.9 mph - N/A   Drizzle
9:53 PM 46.4 °F 43.5 °F 42.8 °F 87% 29.88 in 10.0 mi North 5.8 mph - N/A   Drizzle
10:13 PM 46.4 °F - 42.8 °F 87% 29.88 in 10.0 mi Calm Calm - N/A   Drizzle
10:34 PM 46.4 °F 42.4 °F 42.8 °F 87% 29.89 in 10.0 mi WNW 8.1 mph - N/A   Overcast
10:53 PM 46.4 °F 42.4 °F 42.8 °F 87% 29.88 in 10.0 mi NW 8.1 mph - N/A   Drizzle
11:13 PM 46.4 °F 42.9 °F 42.8 °F 87% 29.87 in 10.0 mi WSW 6.9 mph - 0.02 in Rain Light Rain
11:34 PM 44.6 °F 41.4 °F 42.8 °F 93% 29.86 in 10.0 mi SW 5.8 mph - 0.02 in   Mostly Cloudy
11:53 PM 44.6 °F - 42.8 °F 93% 29.86 in 10.0 mi Calm Calm - 0.02 in   Clear